#timestamp,LO_Frequency,Hit 
1501473655.7,286047001.1,P
1501473675.6,286047000.4,P
1501473695.4,286047000.4,N
1501473715.3,286047000.3,N
1501473735.1,286047000.4,N
1501473736.0,286047000.4,N
1501473755.8,286047000.8,N
1501473775.7,286047000.5,N
1501473795.5,286046998.2,P
1501473815.3,286046998.1,N
1501473835.2,286046998.7,N
1501473855.0,286046998.8,N
1501473855.9,286046998.8,N
1501473875.8,286046998.8,N
1501473895.6,286046999.6,N
1501473915.4,286046999.2,N
1501473935.3,286046996.5,P
1501473955.1,286046999.3,N
1501473975.9,286046998.6,N
1501473995.7,286046998.4,N
1501474015.5,286046999.3,N
1501474035.4,286047001.0,N
1501474055.2,286046998.6,N
1501474075.0,286046998.5,N
1501474076.0,286046998.5,N
1501474095.8,286046998.4,N
1501474115.6,286046998.5,N
1501474135.5,286047000.3,N
1501474155.3,286047000.7,N
1501474175.1,286047000.6,N
1501474195.9,286047000.9,N
1501474215.7,286047000.9,N
1501474235.6,286047000.5,N
1501474255.4,286047000.3,N
1501474275.2,286046999.8,N
1501474295.1,286047000.9,N
1501474296.0,286047000.9,N
1501474315.8,286047002.8,N
1501474335.6,286047000.4,N
1501474355.5,286047000.6,N
1501474375.3,286047000.5,N
1501474395.2,286047002.8,N
1501474415.9,286047000.3,N
1501474435.7,286046999.9,N
1501474455.6,286046999.9,N
1501474475.4,286047000.0,N
1501474495.2,286047000.1,N
1501474515.1,286046999.9,N
1501474516.0,286046999.9,N
1501474535.8,286046999.9,N
1501474555.7,286047000.0,N
1501474575.5,286047000.2,N
1501474595.3,286047002.6,N
1501474615.2,286046999.7,N
1501474635.0,286046999.9,N
1501474635.9,286046999.9,N
1501474655.8,286047002.7,N
1501474675.6,286047000.2,N
1501474695.4,286047000.1,N
1501474715.3,286046999.8,N
1501474735.1,286047000.2,N
1501474755.8,286047000.0,N
1501474775.7,286047000.3,N
1501474795.5,286047000.2,N
1501474815.4,286046999.7,N
1501474835.2,286047000.6,N
1501474855.0,286047000.1,N
1501474855.9,286047000.1,N
1501474875.8,286047000.5,N
1501474895.6,286047000.0,N
1501474915.5,286047000.2,N
1501474935.3,286047000.0,N
1501474955.1,286047002.3,P
1501474975.9,286047002.7,N
1501474995.7,286046999.8,N
1501475015.5,286047002.7,N
1501475035.4,286047002.4,N
1501475055.2,286047002.3,N
1501475075.1,286047002.4,N
1501475076.0,286047002.4,N
1501475095.8,286047002.1,N
1501475115.6,286047002.2,N
1501475135.5,286047002.6,N
1501475155.3,286047000.1,N
1501475175.2,286046999.9,N
1501475195.9,286046999.7,N
1501475215.7,286046999.8,N
1501475235.6,286047000.2,N
1501475255.4,286047001.4,N
1501475275.2,286047001.5,N
1501475295.1,286047004.1,P
1501475296.0,286047004.1,P
1501475315.8,286047002.8,N
1501475335.7,286047001.5,N
1501475355.5,286047004.4,P
1501475375.3,286046998.2,N
1501475395.2,286046997.0,N
1501475415.0,286046999.2,N
1501475415.9,286046999.2,N
1501475435.8,286046996.8,N
1501475455.6,286046997.4,N
1501475475.4,286046997.8,N
1501475495.3,286046998.0,N
1501475515.1,286046995.0,N
1501475535.8,286046997.9,N
1501475555.7,286046995.1,N
1501475575.5,286046995.3,N
1501475595.4,286046995.6,N
1501475615.2,286046995.5,N
1501475635.0,286046996.0,N
1501475635.9,286046996.0,N
1501475655.8,286046995.9,N
1501475675.6,286046993.3,N
1501475695.5,286046995.9,N
1501475715.3,286046993.3,N
1501475735.1,286046996.4,N
1501475755.9,286046997.9,N
1501475775.7,286046995.8,N
1501475795.5,286046995.5,N
1501475815.4,286046995.1,N
1501475835.2,286046995.0,N
1501475855.1,286046996.1,N
1501475856.0,286046996.1,N
1501475875.8,286046995.4,N
1501475895.6,286046996.1,N
1501475915.5,286046995.2,P
1501475935.3,286046998.7,N
1501475955.2,286046998.2,N
1501475975.9,286046998.1,N
1501475995.7,286047000.4,N
1501476015.6,286047001.2,N
1501476035.4,286046998.1,N
1501476055.2,286047002.4,N
1501476075.1,286047002.2,N
1501476076.0,286047002.2,N
1501476095.8,286046999.7,N
1501476115.7,286047000.4,N
1501476135.5,286047002.5,N
1501476155.3,286047004.3,N
1501476175.2,286047002.7,N
1501476195.0,286047002.3,N
1501476195.9,286047002.3,N
1501476215.8,286047000.9,N
1501476235.6,286047000.6,N
1501476255.4,286047000.1,N
1501476275.3,286047002.7,N
1501476295.1,286047000.2,N
1501476315.8,286047000.2,N
1501476335.7,286047002.8,N
1501476355.5,286047000.5,N
1501476375.4,28601501476495.9,286046998.6,P
1501476515.7,286047000.3,N
1501476535.6,286047001.2,N
1501476555.4,286047001.1,N
1501476575.2,286047000.5,N
1501476595.1,286046998.3,N
1501476596.0,286046998.3,N
1501476615.8,286046999.0,N
1501476635.7,286046999.1,N
1501476655.5,286046998.4,N
1501476675.3,286046998.3,N
1501476695.2,286047000.7,N
1501476715.0,286047000.1,N
1501476715.9,286047000.1,N
1501476735.7,286046999.8,N
1501476755.6,286046999.7,N
1501476775.4,286047000.4,N
1501476795.3,286046998.5,N
1501476815.1,286046998.2,N
1501476816.0,286046998.2,N
1501476835.8,286046998.5,N
1501476855.7,286046998.4,N
1501476905.5,286047000.9,E
1501476915.5,286047001.0,N
1501476935.3,286046999.0,P
1501476955.1,286046998.2,N
1501476975.9,286046999.8,N
1501476995.7,286046999.8,N
1501477015.6,286047001.1,N
1501477035.4,286047001.1,N
1501477055.2,286046998.6,N
1501477075.1,286047002.2,N
1501477076.0,286047002.2,N
1501477095.8,286047005.6,P
1501477115.7,286047004.6,N
1501477135.5,286047009.0,P
1501477155.3,286047009.2,N
1501477175.2,286047006.9,N
1501477195.0,286047005.1,N
1501477195.9,286047005.1,N
